Heart & Sole Race — Results

Billings, Montana, United States

1st Place

Dawson Larance

5K RRCA State Championship

17:36

2nd Place

Matt Winter

5K RRCA State Championship

17:42

3rd Place

Ashe Sperry

5K RRCA State Championship

18:52

# Bib Name Gender Gender Rank Age Group AG Rank Finish Time Pace
601 1394 Chris Harmon Male M 35-39 25 46:34 14:59 /mi
602 1192 Mary Johnson Female F 80-99 2 46:44 15:03 /mi
603 1715 Connie Dilts Female F 60-64 13 46:48 15:04 /mi
604 1714 Temple Mclean Female F 50-54 22 47:01 15:08 /mi
605 1079 Jesse Vine Male M 65-69 13 47:03 15:09 /mi
606 1745 K. Cook Male 47:12 15:11 /mi
607 1744 Christopher Cook Male M 60-64 14 47:14 15:12 /mi
608 1426 Joni Ahmad Female F 35-39 46 47:20 15:14 /mi
609 1232 Z. Bixby Male 47:35 15:19 /mi
610 886 Breena Collett Female F 13-14 18 47:47 15:23 /mi
611 888 Siv Collett Female F 55-59 22 47:49 15:23 /mi
612 887 Solfrid Collett Female F 15-18 17 47:49 15:23 /mi
613 898 B. Anderson Male 47:55 15:26 /mi
614 897 Lori Wuest Female F 40-44 32 47:56 15:26 /mi
615 1257 Carrie Klempel Female F 50-54 23 48:15 15:32 /mi
616 1461 D. Mockel Female 48:24 15:35 /mi
617 957 Jacob Lee Male M 35-39 26 48:28 15:36 /mi
618 958 Kaycee Lee Female F 30-34 33 48:37 15:39 /mi
619 960 Joe Foran Male M 65-69 14 48:40 15:40 /mi
620 1347 Alan Ankrum Male M 35-39 27 48:40 15:40 /mi
621 974 Venieta Cox Female F 60-64 14 48:53 15:44 /mi
622 994 Carissa Dewey Female F 19-24 30 49:14 15:51 /mi
623 1544 Cynthia Richards Female F 60-64 15 49:19 15:52 /mi
624 1478 Jennifer Nelson Female F 30-34 34 49:35 15:58 /mi
625 1037 Heather Sloan Female F 30-34 35 49:39 15:59 /mi
626 992 Marge Hall Female F 55-59 23 49:41 16:00 /mi
627 892 Gerri Glover-Rains Female F 45-49 31 49:44 16:00 /mi
628 1357 Jessie Weaver Female F 30-34 36 49:59 16:05 /mi
629 1025 Colleen Sorenson Female F 55-59 24 50:03 16:07 /mi
630 980 Carissa Sorenson Female F 19-24 31 50:18 16:11 /mi
631 1713 Shirley Herman Female F 55-59 25 50:28 16:15 /mi
632 1249 Corinne Finley Female F 65-69 6 50:28 16:15 /mi
633 1240 Vicky Glancy Female F 60-64 16 50:30 16:15 /mi
634 1122 Cynthia Swenson Female F 40-44 33 50:59 16:24 /mi
635 968 Lindsey Johnson Female F 25-29 40 51:04 16:26 /mi
636 1344 Holly Davison Female F 19-24 32 51:04 16:26 /mi
637 1246 Grace Frankforter Female F 55-59 26 51:18 16:31 /mi
638 604 Heidi Diaz Female F 30-34 37 51:27 16:34 /mi
639 1423 Chris Larance Female F 60-64 17 51:35 16:36 /mi
640 1128 Nancy Hoffman Female F 50-54 24 51:36 16:36 /mi
641 1797 Karen Jones Female F 50-54 25 51:40 16:38 /mi
642 1600 Vicki Geer Female F 30-34 38 51:42 16:38 /mi
643 1667 Val Gabel Female F 35-39 47 51:44 16:39 /mi
644 1162 Melanie Marsh Female F 50-54 26 51:44 16:39 /mi
645 1237 Leena Burke Female F 19-24 33 51:51 16:41 /mi
646 1239 Caleob Bixby Male M 19-24 16 51:53 16:42 /mi
647 1178 Melinda Davidson Female F 40-44 34 52:00 16:44 /mi
648 1385 Cindy White Female F 50-54 27 52:00 16:44 /mi
649 908 Lynette Tedlund Female F 55-59 27 52:01 16:45 /mi
650 909 Janet Seymour Female F 55-59 28 52:02 16:45 /mi

Showing 601–650 of 737 results